Location: *
(44.3925°N, 5.4708°E)
Time: 10:31:52
(UTC+00:00)

Cosmos 2082 - Pass Details

Date: 18 September 2019
Orbit: 834 x 855 km, 71.0° (Epoch: 22 October)

Event Time Altitude Azimuth Distance (km) Brightness Sun altitude
Exits shadow 20:35:05 71° 1° (N) 906 3.8 -29.4°
Drops below altitude 10° 20:40:12 10° 24° (NNE) 2,493 6.3 -30.1°
Sets 20:42:40 0° 25° (NNE) 3,431 7.0 -30.4°
